Miscellaneous Local Product
Issued by NWS Hastings, NE

Home | Current Version | Previous Version | Graphics & Text | Print | Product List | Glossary On
Versions: 1 2 3 4 5 6 7 8 9 10 11 12 13 14 15 16 17 18 19 20 21 22 23 24 25 26 27 28 29 30 31 32 33 34 35 36 37 38 39 40 41 42 43 44 45 46 47 48 49 50
000
AXUS43 KGID 282302
MISGRI

GID CWA HOURLY WEATHER ROUNDUP
NATIONAL WEATHER SERVICE HASTINGS NE
600 PM CDT THU MAY 28 2015

NOTE: "FAIR" INDICATES FEW OR NO CLOUDS BELOW 12,000 FEET WITH NO
SIGNIFICANT WEATHER AND/OR OBSTRUCTIONS TO VISIBILITY.

...SOUTH CENTRAL NEBRASKA...

CITY           SKY/WX    TMP DP  RH WIND       PRES   REMARKS
GRAND ISLAND   PTSUNNY   77  58  51 S10       29.90S
HASTINGS       PTSUNNY   76  59  55 S13       29.89F
KEARNEY        PTSUNNY   77  57  50 S16       29.88F
ORD            CLOUDY    74  59  59 S13       29.87F
YORK           PTSUNNY   79  59  50 S12       29.89F
AURORA         PTSUNNY   78  58  48 S14       29.90R
LEXINGTON      PTSUNNY   75  61  60 S20G26    29.89F
HOLDREGE       CLOUDY    75  58  54 S14G22    29.89F
HEBRON         MOSUNNY   79  59  50 S13       29.91S

...NEBRASKA PANHANDLE...

CITY           SKY/WX    TMP DP  RH WIND       PRES   REMARKS
CHADRON        CLOUDY    72  51  47 VRB3      29.88F
ALLIANCE       CLOUDY    68  52  56 W7        29.91F
SCOTTSBLUFF    CLOUDY    75  47  36 NW8       29.90F
SIDNEY         CLOUDY    55  51  86 VRB3      29.96F

...WESTERN AND NORTH CENTRAL NEBRASKA...

CITY           SKY/WX    TMP DP  RH WIND       PRES   REMARKS
VALENTINE      PTSUNNY   68  54  60 SW9       29.86R
AINSWORTH      PTSUNNY   73  59  61 S14       29.88R
ONEILL         CLOUDY    79  57  46 S17       29.87F
BROKEN BOW     CLOUDY    75  62  64 S12       29.88F
IMPERIAL       CLOUDY    71  60  68 S15       29.89S
NORTH PLATTE   PTSUNNY   74  58  57 S16       29.86F
MCCOOK         CLOUDY    75  59  57 S15G22    29.87F

...EASTERN NEBRASKA...

CITY           SKY/WX    TMP DP  RH WIND       PRES   REMARKS
NORFOLK        PTSUNNY   74  64  71 SE15      29.88F
SO SIOUX CITY  CLOUDY    73  61  65 SE17G23   29.91F
TEKAMAH        CLOUDY    71  66  84 SE14      29.92F
COLUMBUS       MOSUNNY   77  63  61 SE13      29.90S
ALBION         CLOUDY    79  57  47 S15       29.87F
OMAHA EPPLEY   CLOUDY    72  64  76 S10       29.93F
MILLARD        CLOUDY    74  65  74 SE13G18   29.93F
LINCOLN        PTSUNNY   74  65  73 S16       29.90F
NEBRASKA CITY  CLOUDY    72  62  71 S14       29.94F
BEATRICE       PTSUNNY   74  65  75 S12G18    29.91F
FALLS CITY     CLOUDY    74  65  73 S12       29.93F

...NORTHERN KANSAS...

CITY           SKY/WX    TMP DP  RH WIND       PRES   REMARKS
GOODLAND       CLOUDY    65  59  81 E5        29.91F
HILL CITY      CLOUDY    72  60  66 S8        29.90F
NORTON         CLEAR     73  55  53 SE9       29.86F
SMITH CENTER   SUNNY     73  63  68 S8        29.89F
HAYS           MOSUNNY   73  61  64 SE10      29.90S
RUSSELL        MOSUNNY   76  64  66 S16       29.88F
CONCORDIA      MOSUNNY   77  63  61 S12       29.90F
SALINA         SUNNY     78  63  59 S14G22    29.89F
TOPEKA         CLOUDY    75  64  68 S12       29.94F



USA.gov is the U.S. government's official web portal to all federal, state and local government web resources and services.